Weather History for KCTY - November, 2013

Change the Weather History Date:

Sunday, November 17, 2013

  Actual Average Record
Temperature  
Mean Temperature 75 °F 62 °F  
Max Temperature 83 °F 75 °F 84 °F (1998)
Min Temperature 67 °F 49 °F 24 °F (2007)
Degree Days  
Heating Degree Days 0 5  
Month to date heating degree days 41 59  
Since 1 July heating degree days 59 91  
Cooling Degree Days 10 2  
Month to date cooling degree days 44 41  
Year to date cooling degree days 2795 2584  
Growing Degree Days 24 (Base 50)    
Moisture  
Dew Point 68 °F    
Average Humidity 87    
Maximum Humidity 100    
Minimum Humidity 67    
Precipitation  
Precipitation 0.04 in 0.09 in 0.90 in (2011)
Month to date precipitation 1.33 1.33  
Year to date precipitation 60.51 44.56  
Sea Level Pressure  
Sea Level Pressure 30.05 in    
Wind  
Wind Speed 4 mph (SSE)    
Max Wind Speed 15 mph    
Max Gust Speed 21 mph    
T = Trace of Precipitation, MM = Missing Value Source: NWS Daily Summary

Daily Weather History Graph

Daily Weather History Graph

Search for Another Location

Airport or City:

Trip Planner

Search our weather history database for the weather conditions in past years. The results will help you decide how hot, cold, wet, or windy it might be!

Date:

Astronomy

Nov. 17, 2013 Rise Set
Actual Time 6:58 AM EST 5:35 PM EST
Civil Twilight 6:33 AM EST 6:01 PM EST
Nautical Twilight 6:04 AM EST 6:30 PM EST
Astronomical Twilight 5:36 AM EST 6:58 PM EST
Moon 5:51 PM EST (11/17) 6:52 AM EST (11/17)
Length of Visible Light 11h 27m
Length of Day
10h 37m
Full, 100% of the Moon is Illuminated
Nov 17
Full
Nov 25
Last Quarter
Dec 2
New
Dec 9
First Quarter
Dec 17
Full

Hourly Weather History & Observations

Time (EST) Temp. Heat Index Dew Point Humidity Pressure Visibility Wind Dir Wind Speed Gust Speed Precip Events Conditions
12:53 AM 68.0 °F - 66.0 °F 93% 30.09 in - ENE 3.5 mph - N/A   Unknown
1:53 AM 68.0 °F - 66.0 °F 93% 30.08 in - Variable 4.6 mph - N/A   Unknown
2:53 AM 68.0 °F - 66.9 °F 96% 30.08 in - Calm Calm - 0.01 in   Unknown
3:53 AM 66.9 °F - 66.0 °F 97% 30.07 in - NNE 3.5 mph - N/A   Unknown
4:53 AM 66.9 °F - 66.0 °F 97% 30.06 in - East 3.5 mph - 0.02 in   Unknown
5:53 AM 66.9 °F - 66.0 °F 97% 30.05 in - Variable 4.6 mph - N/A   Unknown
6:53 AM 66.9 °F - 66.9 °F 100% 30.06 in - Calm Calm - 0.01 in   Unknown
7:53 AM 68.0 °F - 66.9 °F 96% 30.07 in - ESE 3.5 mph - N/A   Unknown
8:53 AM 70.0 °F - 68.0 °F 93% 30.09 in - SE 4.6 mph - N/A   Unknown
9:53 AM 72.0 °F - 68.0 °F 87% 30.09 in - SSE 4.6 mph - N/A   Unknown
10:53 AM 78.1 °F - 71.1 °F 79% 30.08 in - South 8.1 mph - N/A   Unknown
11:53 AM 79.0 °F - 71.1 °F 77% 30.06 in - South 6.9 mph - N/A   Unknown
12:53 PM 82.9 °F 87.5 °F 71.1 °F 67% 30.04 in - South 8.1 mph - N/A   Unknown
1:53 PM 81.0 °F 84.1 °F 69.1 °F 67% 30.02 in - South 10.4 mph - N/A   Unknown
2:53 PM 79.0 °F - 66.9 °F 66% 30.02 in - SSW 9.2 mph - N/A   Unknown
3:53 PM 78.1 °F - 69.1 °F 74% 30.02 in - SSW 10.4 mph - N/A   Unknown
4:53 PM 75.9 °F - 69.1 °F 79% 30.03 in - SW 3.5 mph - N/A   Unknown
5:53 PM 73.0 °F - 68.0 °F 84% 30.03 in - SSW 3.5 mph - N/A   Unknown
6:53 PM 72.0 °F - 69.1 °F 91% 30.04 in - Calm Calm - N/A   Unknown
7:53 PM 70.0 °F - 68.0 °F 93% 30.03 in - Calm Calm - N/A   Unknown
8:53 PM 70.0 °F - 68.0 °F 93% 30.03 in - Calm Calm - N/A   Unknown
9:53 PM 69.1 °F - 66.9 °F 93% 30.04 in - Calm Calm - N/A   Unknown
10:53 PM 68.0 °F - 66.0 °F 93% 30.05 in - Calm Calm - N/A   Unknown
11:53 PM 66.9 °F - 66.0 °F 97% 30.04 in - Calm Calm - N/A   Unknown